2E0RGX-13 Weather Reports


time (UTC)temp
C
wind
direction
speed
KPH
gust
KPH
rain 1hr
cm
rain 24hr
cm
rain mn
cm
humidity
%
barometer
mb
20260505212629 11 4 16.1 20.9 0.03 0.00 0.03 82 1009.7
20260505212125 11 354 6.4 22.5 0.00 0.00 0.00 81 1009.6
20260505211621 11 29 9.7 14.5 0.00 0.00 0.00 81 1009.9
20260505211117 11 62 4.8 11.3 0.00 0.00 0.00 80 1009.6
20260505210613 11 86 8.0 16.1 0.00 0.00 0.00 80 1009.7
20260505210109 12 52 6.4 16.1 0.00 0.00 0.00 78 1009.6
20260505205605 12 21 11.3 20.9 0.00 0.00 0.00 74 1009.6
20260505205102 12 54 9.7 12.9 0.00 0.00 0.00 71 1009.6
20260505204558 12 43 17.7 25.7 0.00 0.00 0.00 68 1009.5
20260505204054 12 346 3.2 9.7 0.00 0.00 0.00 67 1009.4
20260505203549 12 41 3.2 4.8 0.00 0.00 0.00 68 1009.3
20260505203045 12 58 4.8 9.7 0.00 0.00 0.00 69 1009.2
20260505202541 12 32 6.4 11.3 0.00 0.00 0.00 71 1009.4
20260505202037 12 56 4.8 11.3 0.00 0.00 0.00 71 1009.3
20260505201533 12 51 3.2 6.4 0.00 0.00 0.00 70 1009.0
20260505201029 12 78 1.6 6.4 0.00 0.00 0.00 70 1009.0
20260505200525 12 47 4.8 6.4 0.00 0.00 0.00 70 1009.1
20260505200021 12 45 4.8 4.8 0.00 0.00 0.00 70 1009.1
20260505195517 12 106 3.2 6.4 0.00 0.00 0.00 70 1008.8
20260505195014 12 52 1.6 3.2 0.00 0.00 0.00 70 1008.5
20260505194510 12 89 4.8 9.7 0.00 0.00 0.00 69 1008.6
20260505194005 12 69 1.6 6.4 0.00 0.00 0.00 69 1008.7
20260505193501 13 51 6.4 9.7 0.00 0.00 0.00 68 1008.6
20260505192957 13 67 3.2 6.4 0.00 0.00 0.00 68 1008.7
20260505192453 13 32 3.2 6.4 0.00 0.00 0.00 69 1008.6
20260505191949 13 344 1.6 6.4 0.00 0.00 0.00 68 1008.4
20260505191445 13 16 6.4 14.5 0.00 0.00 0.00 67 1008.4
20260505190941 13 7 3.2 11.3 0.00 0.00 0.00 65 1008.4
20260505190437 13 46 6.4 6.4 0.00 0.00 0.00 64 1008.3
20260505185933 13 33 6.4 6.4 0.00 0.00 0.00 64 1008.4
20260505185429 14 17 6.4 6.4 0.00 0.00 0.00 63 1008.1
20260505184926 14 50 4.8 6.4 0.00 0.00 0.00 62 1008.1
20260505184422 14 82 3.2 4.8 0.00 0.00 0.00 62 1008.1
20260505183917 14 104 0.0 1.6 0.00 0.00 0.00 62 1007.8
20260505183413 14 127 1.6 1.6 0.00 0.00 0.00 62 1007.9
20260505182909 14 72 1.6 3.2 0.00 0.00 0.00 62 1007.9
20260505182405 14 82 3.2 6.4 0.00 0.00 0.00 62 1008.0
20260505181901 14 90 3.2 4.8 0.00 0.00 0.00 62 1008.0
20260505181357 14 55 3.2 6.4 0.00 0.00 0.00 62 1008.0
20260505180853 14 36 1.6 9.7 0.00 0.00 0.00 62 1007.8
20260505180349 14 91 4.8 6.4 0.00 0.00 0.00 61 1008.0
20260505175845 14 62 3.2 9.7 0.00 0.00 0.00 61 1007.9
20260505175341 14 134 3.2 6.4 0.00 0.00 0.00 61 1008.1
20260505174838 14 55 3.2 4.8 0.00 0.00 0.00 61 1008.0
20260505174334 14 76 1.6 9.7 0.00 0.00 0.00 60 1008.2
20260505173830 15 78 1.6 3.2 0.00 0.00 0.00 59 1008.0
20260505173326 15 134 3.2 4.8 0.00 0.00 0.00 59 1008.1
20260505172822 15 111 1.6 6.4 0.00 0.00 0.00 59 1008.0
20260505172318 15 86 3.2 4.8 0.00 0.00 0.00 59 1007.9
20260505171814 15 111 3.2 6.4 0.00 0.00 0.00 59 1008.0
20260505171310 15 136 3.2 11.3 0.00 0.00 0.00 59 1008.2
20260505170806 15 124 6.4 11.3 0.00 0.00 0.00 58 1008.2
20260505170302 15 91 0.0 11.3 0.00 0.00 0.00 57 1008.1
20260505165758 15 89 6.4 9.7 0.00 0.00 0.00 56 1008.2
20260505165254 15 48 4.8 6.4 0.00 0.00 0.00 56 1008.1
20260505164749 15 48 6.4 9.7 0.00 0.00 0.00 55 1008.0
20260505164245 15 64 3.2 4.8 0.00 0.00 0.00 56 1008.0
20260505163741 15 99 6.4 9.7 0.00 0.00 0.00 55 1008.1
20260505163237 15 114 4.8 9.7 0.00 0.00 0.00 55 1008.2
20260505162733 15 100 4.8 12.9 0.00 0.00 0.00 54 1008.2
20260505162229 15 131 6.4 9.7 0.00 0.00 0.00 54 1008.2
20260505161725 15 81 8.0 11.3 0.00 0.00 0.00 54 1007.9
20260505161221 15 33 8.0 12.9 0.00 0.00 0.00 54 1008.1
20260505160717 15 92 6.4 11.3 0.00 0.00 0.00 53 1008.1
20260505160213 15 82 9.7 11.3 0.00 0.00 0.00 53 1008.3
20260505153148 16 49 4.8 6.4 0.00 0.00 0.00 52 1007.9
20260505152644 16 67 6.4 11.3 0.00 0.00 0.00 51 1008.0
20260505152140 16 67 3.2 6.4 0.00 0.00 0.00 51 1008.2
20260505151636 16 52 0.0 4.8 0.00 0.00 0.00 51 1008.0
20260505151132 16 292 0.0 1.6 0.00 0.00 0.00 51 1007.9
20260505150628 16 46 8.0 9.7 0.00 0.00 0.00 50 1008.1
20260505150124 16 45 4.8 4.8 0.00 0.00 0.00 52 1008.2
20260505140541 16 77 4.8 14.5 0.00 0.00 0.00 51 1008.3
20260505124940 16 45 8.0 11.3 0.00 0.00 0.00 47 1008.6
20260505124436 16 283 4.8 9.7 0.00 0.00 0.00 51 1008.9
20260505123932 17 71 1.6 6.4 0.00 0.00 0.00 49 1008.7
20260505123428 16 116 3.2 9.7 0.00 0.00 0.00 47 1008.3
20260505122924 16 335 6.4 9.7 0.00 0.00 0.00 48 1008.7
20260505122420 16 21 6.4 14.5 0.00 0.00 0.00 49 1008.7
20260505121916 16 9 3.2 4.8 0.00 0.00 0.00 51 1008.7
20260505121412 16 30 14.5 16.1 0.00 0.00 0.00 51 1008.8
20260505120908 16 144 0.0 6.4 0.00 0.00 0.00 52 1008.7
20260505120404 16 70 4.8 11.3 0.00 0.00 0.00 54 1008.8
20260505115900 16 37 6.4 9.7 0.00 0.00 0.00 52 1008.8
20260505115356 16 22 8.0 12.9 0.00 0.00 0.00 49 1008.7
20260505114852 16 25 1.6 6.4 0.00 0.00 0.00 51 1008.8
20260505114348 15 34 3.2 6.4 0.00 0.00 0.00 56 1008.8
20260505113844 15 19 11.3 12.9 0.00 0.00 0.00 57 1008.9
20260505113340 15 65 3.2 6.4 0.00 0.00 0.00 56 1009.0
20260505112836 15 6 8.0 14.5 0.00 0.00 0.00 57 1008.8
20260505112332 15 49 8.0 16.1 0.00 0.00 0.00 57 1009.1
20260505111828 15 13 9.7 20.9 0.00 0.00 0.00 59 1009.2
20260505111324 15 65 3.2 9.7 0.00 0.00 0.00 61 1008.8
20260505110820 15 353 9.7 11.3 0.00 0.00 0.00 58 1009.1
20260505110316 15 25 11.3 16.1 0.00 0.00 0.00 60 1009.0
20260505101740 14 61 1.6 9.7 0.00 0.00 0.00 63 1009.4
20260505101236 14 0 4.8 14.5 0.00 0.00 0.00 63 1009.7
20260505100732 14 287 3.2 16.1 0.00 0.00 0.00 64 1009.4
20260505100228 14 16 1.6 11.3 0.00 0.00 0.00 63 1009.4
20260505095724 13 33 4.8 12.9 0.00 0.00 0.00 64 1009.7
20260505095220 13 36 11.3 12.9 0.00 0.00 0.00 65 1009.8
20260505094717 13 71 3.2 16.1 0.00 0.00 0.00 65 1009.8
20260505094213 13 317 3.2 11.3 0.00 0.00 0.00 66 1009.6
20260505093709 13 339 0.0 11.3 0.00 0.00 0.00 68 1009.6
20260505093205 13 339 6.4 14.5 0.00 0.00 0.00 68 1009.6
20260505092701 13 4 4.8 9.7 0.00 0.00 0.00 70 1009.8
20260505092157 12 136 1.6 14.5 0.00 0.00 0.00 72 1010.0
20260505091653 13 29 9.7 14.5 0.00 0.00 0.00 72 1009.8
20260505091149 12 22 6.4 9.7 0.00 0.00 0.00 72 1009.9
20260505090645 12 20 6.4 17.7 0.00 0.00 0.00 73 1009.9
20260505090140 12 271 1.6 12.9 0.00 0.00 0.00 73 1009.8
20260505085636 12 28 3.2 11.3 0.00 0.00 0.00 74 1010.0
20260505085133 12 19 1.6 6.4 0.00 0.00 0.00 75 1010.1
20260505084629 12 49 4.8 9.7 0.00 0.00 0.00 75 1010.1
20260505084125 12 5 3.2 9.7 0.00 0.00 0.00 75 1010.1
20260505083621 12 14 6.4 12.9 0.00 0.00 0.00 75 1010.2
20260505083117 12 321 3.2 4.8 0.00 0.00 0.00 75 1010.0
20260505082613 12 26 6.4 14.5 0.00 0.00 0.00 76 1010.1
20260505082109 12 310 1.6 12.9 0.00 0.00 0.00 76 1009.9
20260505081605 12 55 6.4 11.3 0.00 0.00 0.00 76 1010.1
20260505081101 12 3 3.2 14.5 0.00 0.00 0.00 77 1010.0
20260505080556 12 275 1.6 6.4 0.00 0.00 0.00 77 1010.1
20260505080052 11 41 4.8 12.9 0.00 0.00 0.00 77 1010.1
20260505075548 11 322 3.2 9.7 0.00 0.00 0.00 77 1009.7
20260505075045 11 46 3.2 11.3 0.00 0.00 0.00 78 1010.1
20260505074541 11 357 3.2 9.7 0.00 0.00 0.00 78 1009.9
20260505074037 11 6 8.0 9.7 0.00 0.00 0.00 78 1010.0
20260505073533 11 355 4.8 12.9 0.00 0.00 0.00 79 1009.9
20260505073029 11 16 3.2 12.9 0.00 0.00 0.00 79 1009.9
20260505072525 11 51 6.4 14.5 0.00 0.00 0.00 80 1010.0
20260505072021 11 49 1.6 11.3 0.00 0.00 0.00 80 1010.0
20260505071517 11 33 11.3 14.5 0.00 0.00 0.00 80 1010.2
20260505071012 11 337 6.4 9.7 0.00 0.00 0.00 81 1010.0
20260505070508 11 346 8.0 12.9 0.00 0.00 0.00 81 1010.2
20260505070005 11 241 1.6 3.2 0.00 0.00 0.00 81 1010.0
20260505065500 11 323 3.2 11.3 0.00 0.00 0.00 81 1010.2
20260505064957 11 296 3.2 9.7 0.00 0.00 0.00 81 1010.3
20260505064453 11 15 1.6 4.8 0.00 0.00 0.00 81 1010.2
20260505063949 11 325 3.2 9.7 0.00 0.00 0.00 81 1010.3
20260505063445 11 46 3.2 4.8 0.00 0.00 0.00 81 1010.1
20260505062941 11 318 1.6 3.2 0.00 0.00 0.00 80 1010.3
20260505062436 11 30 1.6 3.2 0.00 0.00 0.00 81 1010.1
20260505061932 11 309 0.0 4.8 0.00 0.00 0.00 81 1010.0
20260505061428 11 295 0.0 4.8 0.00 0.00 0.00 82 1010.2
20260505060924 11 27 1.6 4.8 0.00 0.00 0.00 82 1010.2
20260505060420 11 48 0.0 3.2 0.00 0.00 0.00 83 1010.1
20260505055916 11 353 1.6 3.2 0.00 0.00 0.00 83 1010.1
20260505055412 11 69 0.0 3.2 0.00 0.00 0.00 84 1010.0
20260505054909 10 92 0.0 3.2 0.00 0.00 0.00 84 1010.2
20260505054405 10 324 3.2 4.8 0.00 0.00 0.00 84 1010.1
20260505053901 10 309 1.6 3.2 0.00 0.00 0.00 85 1010.2
20260505053357 10 315 1.6 3.2 0.00 0.00 0.00 85 1010.2
20260505052852 10 53 1.6 3.2 0.00 0.00 0.00 85 1010.3
20260505052348 10 38 3.2 4.8 0.00 0.00 0.00 85 1010.3
20260505051844 10 29 4.8 6.4 0.00 0.00 0.00 85 1010.3
20260505051340 10 2 3.2 4.8 0.00 0.00 0.00 85 1010.3
20260505050836 10 22 4.8 4.8 0.00 0.00 0.00 86 1010.4
20260505050332 10 33 0.0 4.8 0.00 0.00 0.00 86 1010.3
20260505041756 10 320 3.2 6.4 0.00 0.00 0.00 87 1010.2
20260505041252 10 326 3.2 3.2 0.00 0.00 0.00 87 1010.4
20260505040748 10 7 1.6 1.6 0.00 0.00 0.00 87 1010.3
20260505040244 10 339 3.2 3.2 0.00 0.00 0.00 87 1010.4
20260505035740 10 72 0.0 1.6 0.00 0.00 0.00 87 1010.3
20260505035236 10 24 1.6 4.8 0.00 0.00 0.00 87 1010.3
20260505034733 10 46 3.2 3.2 0.00 0.00 0.00 87 1010.4
20260505034228 10 60 1.6 4.8 0.00 0.00 0.00 87 1010.4
20260505033724 10 319 3.2 9.7 0.00 0.00 0.00 87 1010.5
20260505033220 10 28 3.2 3.2 0.00 0.00 0.00 87 1010.3
20260505032716 10 340 6.4 9.7 0.00 0.00 0.00 87 1010.6
20260505032212 10 59 1.6 6.4 0.00 0.00 0.00 87 1010.6
20260505031708 10 14 0.0 4.8 0.00 0.00 0.00 88 1010.4
20260505031204 10 7 6.4 6.4 0.00 0.00 0.00 88 1010.4
20260505030700 11 316 1.6 4.8 0.00 0.00 0.00 88 1010.6
20260505030156 11 48 1.6 4.8 0.00 0.00 0.00 88 1010.3
20260505025652 11 28 3.2 6.4 0.00 0.00 0.00 88 1010.4
20260505025148 11 56 1.6 4.8 0.00 0.00 0.00 88 1010.3
20260505024645 11 82 3.2 11.3 0.00 0.00 0.00 88 1010.2
20260505024141 11 32 8.0 11.3 0.00 0.00 0.00 88 1010.4
20260505023637 11 34 6.4 9.7 0.00 0.00 0.00 89 1010.5
20260505023133 11 38 6.4 6.4 0.00 0.00 0.00 89 1010.6
20260505022628 11 46 4.8 6.4 0.00 0.00 0.00 89 1010.4
20260505022124 11 281 0.0 1.6 0.00 0.00 0.00 90 1010.5
20260505021620 11 39 1.6 4.8 0.00 0.00 0.00 90 1010.4
20260505021116 11 31 8.0 11.3 0.00 0.00 0.00 90 1010.4
20260505020612 11 43 4.8 6.4 0.00 0.00 0.00 90 1010.5
20260505020108 11 36 9.7 11.3 0.00 0.00 0.00 90 1010.4
20260505015604 11 13 0.0 4.8 0.00 0.00 0.00 90 1010.5
20260505015101 11 41 3.2 11.3 0.00 0.00 0.00 90 1010.4
20260505014557 11 235 1.6 4.8 0.00 0.00 0.00 90 1010.4
20260505014053 11 354 3.2 6.4 0.00 0.00 0.00 90 1010.4
20260505013549 11 45 3.2 3.2 0.00 0.00 0.00 90 1010.8
20260505013044 11 93 3.2 4.8 0.00 0.00 0.00 90 1010.7
20260505012540 11 80 3.2 4.8 0.00 0.00 0.00 90 1011.0
20260505012036 11 99 1.6 4.8 0.00 0.00 0.00 90 1010.8
20260505011532 11 94 1.6 6.4 0.00 0.00 0.00 90 1011.2
20260505011028 11 93 1.6 3.2 0.00 0.00 0.00 90 1011.0
20260505010524 11 97 3.2 4.8 0.00 0.00 0.00 90 1011.0
20260505010020 11 103 1.6 6.4 0.00 0.00 0.00 90 1011.2
20260505005516 11 60 4.8 4.8 0.00 0.00 0.00 89 1011.0
20260505005013 11 57 6.4 9.7 0.00 0.00 0.00 89 1010.7
20260505004509 11 85 1.6 3.2 0.00 0.00 0.00 89 1010.8
20260505004005 11 61 6.4 6.4 0.00 0.00 0.00 89 1010.9
20260505003500 11 105 1.6 6.4 0.00 0.00 0.00 88 1011.0
20260505002956 11 83 1.6 6.4 0.00 0.00 0.00 88 1010.9
20260505002452 11 80 3.2 4.8 0.00 0.00 0.00 88 1011.0
20260505001948 11 86 1.6 4.8 0.00 0.00 0.00 88 1011.1
20260505001444 11 82 3.2 6.4 0.00 0.00 0.00 87 1011.1
20260505000940 11 128 1.6 4.8 0.00 0.00 0.00 87 1011.2
20260505000436 12 49 1.6 9.7 0.00 0.00 0.00 86 1011.2
20260504235932 12 47 4.8 12.9 0.00 0.00 0.00 85 1011.0
20260504235428 12 61 3.2 6.4 0.00 0.00 0.00 84 1011.1
20260504234925 12 58 6.4 12.9 0.00 0.00 0.00 83 1011.4
20260504234421 12 69 8.0 12.9 0.00 0.00 0.00 82 1011.3
20260504233917 12 64 1.6 6.4 0.00 0.00 0.00 80 1011.2
20260504233413 12 40 4.8 9.7 0.00 0.00 0.00 79 1011.3
20260504232909 12 330 4.8 4.8 0.00 0.00 0.00 79 1011.4
20260504232405 12 38 0.0 6.4 0.00 0.00 0.00 79 1011.4
20260504231901 12 9 6.4 9.7 0.00 0.00 0.00 79 1011.5
20260504231357 12 47 0.0 6.4 0.00 0.00 0.00 79 1011.3
20260504230853 12 33 3.2 4.8 0.00 0.00 0.00 78 1011.4
20260504230349 12 315 1.6 3.2 0.00 0.00 0.00 78 1011.4
20260504225845 12 354 1.6 11.3 0.00 0.00 0.00 78 1011.2
20260504225341 12 270 1.6 1.6 0.00 0.00 0.00 78 1011.5
20260504224837 12 21 1.6 4.8 0.00 0.00 0.00 78 1011.3
20260504224333 12 341 4.8 9.7 0.00 0.00 0.00 78 1011.4
20260504223829 12 323 3.2 6.4 0.00 0.00 0.00 78 1011.3
20260504223325 12 20 3.2 11.3 0.00 0.00 0.00 78 1011.4
20260504222821 12 347 3.2 6.4 0.00 0.00 0.00 78 1011.2
20260504222317 12 65 3.2 6.4 0.00 0.00 0.00 78 1011.5
20260504221813 12 54 1.6 6.4 0.00 0.00 0.00 78 1011.4
20260504221309 13 305 4.8 4.8 0.00 0.00 0.00 78 1011.5
20260504220805 13 39 1.6 6.4 0.00 0.00 0.00 78 1011.3
20260504220301 13 42 6.4 11.3 0.00 0.00 0.00 78 1011.5
20260504215757 13 358 3.2 6.4 0.00 0.00 0.00 77 1011.7
20260504215253 13 328 1.6 3.2 0.00 0.00 0.00 78 1011.6
20260504214748 13 17 3.2 11.3 0.00 0.00 0.00 77 1011.4
20260504214244 13 330 3.2 9.7 0.00 0.00 0.00 77 1011.5
20260504213740 13 121 1.6 11.3 0.00 0.00 0.00 77 1011.4
20260504213236 13 21 4.8 16.1 0.00 0.00 0.00 77 1011.4